Flag for Germany Weather past 2 weeks in Wittlich, Rhineland-Palatinate, Germany

Now
40 °F

Rain. Fog.


Feels Like: 40 °F
Forecast: 27 / 42 °F
Wind: 1 mph from South

Location: Spangdahlem

Current Time: Feb 27, 2015 at 1:40:09 AM

Latest Report: Feb 27, 2015 at 12:58 AM


Visibility: 5 mi

Pressure: 29.79 "Hg

Humidity: 98%

Dew point: 39 °F

Location of WittlichLocation

Historic Weather in Wittlich — Graph

°F

Wittlich temperature yesterday

Maximum temperature yesterday: 43 °F (at 3:58 PM)
Minimum temperature yesterday: 37 °F (at 12:58 AM)
Average temperature yesterday: 40 °F

Past Weeks' High & Low Weather Summary

 TemperatureHumidityPressure
High48 °F (Feb 20, 3:58 PM)100% (Feb 12, 1:58 AM)30.73 "Hg (Feb 12, 1:58 AM)
Low27 °F (Feb 13, 6:50 AM)62% (Feb 20, 3:58 PM)29.41 "Hg (Feb 21, 4:58 AM)
Average35 °F91%30.01 "Hg
* Reported Feb 12 12:58 AM — Feb 27 12:03 AM, Wittlich, Weather by CustomWeather, © 2015

Note: Actual official high and low records may vary slightly from our data, if they occured in-between our weather recording intervals... More about our weather records

Advertising

Wittlich weather history for previous 24 hours

 ConditionsComfort  
Time TempWeatherWind HumidityBarometerVisibility
12:03 AM
Fri, Feb 27
39 °FFog.5 mph100%29.81 "Hg6 mi
10:59 PM
Thu, Feb 26
39 °FFog.6 mph100%29.84 "Hg4 mi
10:58 PM39 °FFog.6 mph100%29.84 "Hg4 mi
9:58 PM39 °FFog.5 mph100%29.88 "Hg6 mi
9:03 PM41 °FDrizzle. Overcast.2 mph93%29.88 "HgN/A
8:58 PM41 °FOvercast.No wind93%29.89 "HgN/A
7:58 PM41 °FOvercast.2 mph90%29.91 "HgN/A
6:58 PM43 °FOvercast.2 mph81%29.93 "HgN/A
5:58 PM43 °FOvercast.8 mph81%29.94 "HgN/A
4:58 PM43 °FOvercast.6 mph81%29.96 "HgN/A
3:58 PM43 °FOvercast.9 mph83%29.98 "HgN/A
2:59 PM43 °FMostly cloudy.8 mph81%29.99 "HgN/A
2:58 PM43 °FCloudy.8 mph87%30.01 "HgN/A
2:01 PM43 °FMore clouds than sun.10 mph87%30.02 "HgN/A
12:58 PM42 °FMostly cloudy.7 mph90%30.06 "HgN/A
12:52 PM43 °FMostly cloudy.9 mph87%30.05 "HgN/A
12:01 PM43 °FCloudy.9 mph93%30.07 "HgN/A
11:58 AM43 °FCloudy.8 mph93%30.08 "HgN/A
10:58 AM41 °FLow clouds.9 mph100%30.09 "HgN/A
9:58 AM40 °FLow clouds.10 mph99%30.10 "HgN/A
9:53 AM41 °FFog.7 mph93%30.09 "Hg5 mi
8:58 AM39 °FFog.6 mph100%30.10 "Hg1 mi
8:47 AM39 °FFog.5 mph100%30.10 "Hg1 mi
7:58 AM38 °FFog.5 mph99%30.11 "Hg0 mi
6:58 AM38 °FFog.3 mph99%30.11 "Hg1 mi
6:51 AM37 °FFog.3 mph100%30.10 "Hg1 mi
6:02 AM37 °FLight rain. Fog.1 mph100%30.10 "Hg1 mi
5:04 AM37 °FFog.2 mph100%30.09 "Hg1 mi
4:58 AM37 °FFog.1 mph100%30.11 "Hg1 mi
3:58 AM37 °FFog.1 mph100%30.11 "Hg1 mi
3:04 AM37 °FFog.2 mph100%30.10 "Hg1 mi
2:58 AM37 °FFog.2 mph100%30.11 "Hg1 mi
1:58 AM38 °FFog.1 mph98%30.12 "Hg1 mi
Weather by CustomWeather, © 2015

See weather overviewHow to use our weather pages